FENGYUN 1C DEB, 31618

Orbit data source: Space-Track

FENGYUN 1C DEB, 31618 is space debris in SSO originally from a launch on Mon, 10 May 1999 UTC launched from the Taiyaun Space Center, China (TSC). Fengyun 1C debris stems from the Chinese weather satellite Fengyun-1C, which was intentionally destroyed by a Chinese anti-satellite missile in 2007. This event dramatically increased the amount of space debris, with thousands of trackable fragments posing hazards to satellites and human spaceflight. The Fengyun 1C debris cloud has become a focal point in discussions about space sustainability and the need for international regulations to prevent the creation of new debris.

Loading next visibility...
Identifier
31618, 1999-025BZY
Orbit
SSO
Country
Flag of CNCN / PRC
Related business
Manufacturer
Unknown
Mission
Spacecraft
Bus & Motor
Unknown
Mass
Unknown
Launch date (UTC)
1999-05-10 (27 years ago)
Launch vehicle
Unknown
Launch site
Taiyaun Space Center, China (TSC)
Object type
Payload
Rocket body
Debris
Shape & HBR
Unknown shape, 0.1 m
Radar Cross Section
Small (<0.1 m²)

Expand to show TLE details & history
Last TLE update: 2 days ago

TLE from 2 days ago
0 FENGYUN 1C DEB
1 31618U 99025BZY 26207.69843735  .00000555  00000-0  24423-3 0  9999
2 31618  99.4723  11.6405 0157517  48.4876 312.9692 14.21431204734744
Epoch: 2026-07-26T16:45Z
TLE epoch observation values (Epoch: 2026-07-26T16:45:44.987Z)
Latitude
-0.00005°
Longitude
175.81043°
Altitude
747.077 km
Speed
7.521 km/s
True Right ascension
00h 46m 33s
True Declination
0° 00' 00"
Sunlit
Object was in daylight at epoch
Visualization orbit readout
Latitude
Unknown
Longitude
Unknown
Altitude
Unknown
Speed
Unknown
Apparent Right ascension
Unknown
Apparent Declination
Unknown
Sunlit
N/A
Visualization observer readout
Local Sidereal Time
02:15:54
Azimuth
Unknown
Elevation
Unknown
Doppler factor
Unknown
Orbital elements
Apogee altitude
931.057 km
Perigee altitude
704.364 km
Semi-major axis
7,195.847 km
Eccentricity
0.01575
Inclination
99.4723°
RAAN
11.6405°
Arg. of periapsis
48.4876°
True anomaly
311.6306°
Mean anomaly
312.9692°
Eccentric anomaly
312.3017°
Mean motion
3.55566 °/min
Orbital period
101.25 mins
BSTAR
0.00024423
Loading maneuver chart data...
Computing Atmospheric mass density...

Documentation

Showing up to 5 results
|